TIME,DELAY(SENSOR),PRES,OXYGEN,RAWTEMP,T(OPTODE),TCPHASE,FLUOR,BETA(BETA700),BETA(BETA412),BETA(BETA440),CDOM,C(CSC),ED(ED412.20),ED(ED444.00),ED(ED489.60),ED(ED554.30),LU(LU412.10),LU(LU443.90),LU(LU489.70),LU(LU554.70),COMP,TILTX,TILTY,CHECK
1343791197,5809,893.8300170898438000,35.0224800109863300,559.3593139648438000,4.5057511329650880,56.2689094543457000,56,100,100,78,83,15567,0,0,0,0,2147123748,2147778368,2147575616,2147572653,3515,3,13,44808
1343794793,5810,976.7700195312500000,40.0976181030273440,565.9871826171875000,4.3001918792724610,55.5554885864257800,55,99,100,78,82,15564,0,0,0,0,2147122925,2147772077,2147577856,2147573906,925,3,13,20182
1343798393,5807,990.0200195312500000,42.3749198913574200,568.9301147460938000,4.2088031768798830,55.2504005432128900,55,99,101,80,82,15562,0,0,0,0,2147123565,2147776704,2147576859,2147571145,274,3,13,15881
1343801993,5809,996.6400146484375000,42.4990005493164060,569.7437133789062000,4.1835250854492190,55.2417716979980500,55,97,102,78,83,15564,0,0,0,0,2147122880,2147774985,2147574454,2147572690,156,3,13,61523
1343805593,5806,1002.6599731445312000,42.0883903503418000,569.8193969726562000,4.1811728477478030,55.3016281127929700,55,99,101,78,82,15551,0,0,0,0,2147121581,2147777974,2147575524,2147570852,3534,3,13,2118
1343809193,5811,1010.1699829101562000,41.5781593322753900,568.8530273437500000,4.2111988067626950,55.3714599609375000,55,100,101,77,82,15561,0,0,0,0,2147122806,2147773824,2147574820,2147571026,3456,3,13,21388
1343812793,5810,1011.2299804687500000,41.4693794250488300,568.9080200195312000,4.2094922065734860,55.3838310241699200,55,106,101,78,82,15562,0,0,0,0,2147121810,2147773513,2147570514,2147568521,209,3,13,45476
1343816393,5807,1014.0900268554688000,41.2021789550781250,568.4852294921875000,4.2226262092590330,55.4214706420898440,56,100,100,78,82,15562,0,0,0,0,2147124571,2147771108,2147575972,2147577682,2710,3,13,57972
1343819993,5810,1020.6900024414062000,41.1267013549804700,568.4937133789062000,4.2223629951477050,55.4274101257324200,55,99,101,79,82,15560,0,0,0,0,2147121106,2147774546,2147572452,2147571126,129,3,13,7259
1343823593,5811,1019.9899902343750000,41.1994705200195300,568.3173828125000000,4.2278370857238770,55.4163398742675800,55,100,100,79,83,15559,0,0,0,0,2147122642,2147771922,2147578944,2147574134,3030,3,13,47421
1343827193,5808,1014.1900024414062000,41.0498809814453100,569.3840942382812000,4.1946978569030760,55.4526214599609400,55,99,99,77,83,15560,0,0,0,0,2147123931,2147773357,2147572397,2147572480,3541,3,13,14845
1343830793,5809,1012.6099853515625000,41.2746086120605500,569.6317749023438000,4.1870021820068360,55.4249000549316400,55,100,103,78,83,15558,0,0,0,0,2147124516,2147775058,2147576932,2147572708,2885,3,13,39882
1343834393,5806,1011.8400268554688000,41.3526916503906250,569.7072143554688000,4.1846618652343750,55.4108695983886700,56,100,101,88,82,15561,0,0,0,0,2147121133,2147772297,2147574144,2147571940,3228,3,13,16016
1343837993,5810,1014.1900024414062000,41.3628997802734400,569.5347290039062000,4.1900219917297360,55.4074211120605500,55,99,100,78,83,15559,0,0,0,0,2147124690,2147770139,2147571172,2147574153,165,3,13,25865
1343841593,5811,1008.0100097656250000,41.1046905517578100,570.4597778320312000,4.1612720489501950,55.4581718444824200,55,98,101,78,83,15561,0,0,0,0,2147121472,2147773924,2147576228,2147574482,3205,3,13,55208
1343845193,5812,1016.5300292968750000,41.3378295898437500,570.3120727539062000,4.1658630371093750,55.4184494018554700,55,100,100,77,83,15561,0,0,0,0,2147124800,2147778029,2147573357,2147573037,260,3,13,25806
1343848793,5809,1021.4199829101562000,41.5337715148925800,569.6746826171875000,4.1856689453125000,55.3856010437011700,54,100,102,78,83,15558,0,0,0,0,2147122029,2147768484,2147574317,2147571346,3244,3,13,52336
1343852393,5809,1016.3800048828125000,41.1087417602539060,570.2072143554688000,4.1691231727600100,55.4548606872558600,55,98,101,80,82,15559,0,0,0,0,2147122377,2147772928,2147574409,2147576896,3584,3,13,50880
1343855993,5810,1018.2999877929688000,41.1744995117187500,571.3538208007812000,4.1334838867187500,55.4541282653808600,54,101,102,78,83,15556,0,0,0,0,2147121947,2147771702,2147573037,2147574665,328,3,13,11131
1343859593,5812,1017.0399780273438000,41.6083297729492200,571.5595092773438000,4.1270890235900880,55.3927688598632800,56,99,101,77,83,15558,0,0,0,0,2147122925,2147776256,2147575158,2147571757,3511,3,13,20883
1343863193,5810,1020.4500122070312000,41.3558998107910160,571.1060791015625000,4.1411819458007810,55.4241600036621100,54,99,101,78,83,15538,0,0,0,0,2147122560,2147772635,2147572928,2147573458,3080,3,13,9891
1343866793,5807,1023.2100219726562000,41.8096504211425800,570.8496704101562000,4.1491551399230960,55.3580284118652340,55,99,101,78,82,15554,0,0,0,0,2147125458,2147771638,2147571510,2147568896,2648,3,13,38803
1343870393,5811,1019.6199951171875000,41.2192306518554700,570.6002197265625000,4.1569080352783200,55.4429206848144500,55,98,102,77,83,15556,0,0,0,0,2147124196,2147771282,2147576749,2147573549,3061,3,13,6276
1343873993,5809,1016.9500122070312000,41.5609397888183600,571.3256835937500000,4.1343569755554200,55.3983192443847660,55,99,101,78,84,15555,0,0,0,0,2147125522,2147770349,2147578825,2147573851,459,3,13,23926
1343877593,5806,1019.0399780273438000,41.6913108825683600,571.6068115234375000,4.1256198883056640,55.3862495422363300,56,97,101,78,82,15556,0,0,0,0,2147123026,2147773440,2147575286,2147572763,3424,3,13,53598
1343881193,5810,1017.0000000000000000,42.1693916320800800,571.8109741210938000,4.1192679405212400,55.3109893798828100,55,99,100,78,83,15558,0,0,0,0,2147126226,2147777142,2147572352,2147573202,589,3,13,13259
1343884793,5811,1017.8200073242188000,42.4047889709472660,571.8668823242188000,4.1175308227539060,55.2828598022460940,55,102,100,79,84,15556,0,0,0,0,2147126418,2147777325,2147577581,2147573696,577,3,13,11816
1343888393,5811,1015.6300048828125000,42.4639892578125000,571.2634887695312000,4.1362900733947750,55.2682685852050800,54,100,99,78,83,15556,0,0,0,0,2147124973,2147769718,2147574500,2147571794,466,3,13,46130
1343891993,5812,1017.5300292968750000,42.6192588806152340,571.7791137695312000,4.1202597618103030,55.2514991760253900,55,100,100,77,83,15552,0,0,0,0,2147126317,2147775835,2147578084,2147573842,698,3,13,30519
1343895593,5809,1017.9000244140625000,41.4829292297363300,571.7014160156250000,4.1226792335510250,55.4105796813964840,54,100,102,78,83,15553,0,0,0,0,2147125714,2147772141,2147575424,2147577636,3547,3,13,36141
1343899193,5809,1015.9899902343750000,42.0768814086914060,571.3311767578125000,4.1341881752014160,55.3213500976562500,55,101,101,79,83,15550,0,0,0,0,2147122825,2147772160,2147573321,2147571949,3559,3,13,65422
1343902793,5809,1021.2600097656250000,41.4743499755859400,571.6715698242188000,4.1236038208007810,55.4139709472656250,55,99,100,80,82,15555,0,0,0,0,2147121892,2147769764,2147576539,2147575149,3010,3,13,15581
1343906393,5808,1022.4899902343750000,41.4243392944335940,571.1611938476562000,4.1394691467285160,55.4160690307617200,55,100,100,79,83,15553,0,0,0,0,2147122825,2147770761,2147578404,2147573376,394,3,13,62044
1343909993,5812,1018.7800292968750000,41.4850082397460940,571.8278198242188000,4.1187458038330080,55.4174385070800800,55,100,100,78,84,15553,0,0,0,0,2147123218,2147776694,2147574473,2147573632,3569,3,13,36865
1343913593,5808,1030.3599853515625000,41.9734497070312500,571.2241821289062000,4.1375122070312500,55.3329811096191400,55,98,101,78,83,15553,0,0,0,0,2147121965,2147774253,2147571190,2147574738,3190,3,13,6694
1343917193,5812,1026.2900390625000000,41.5548286437988300,571.1094970703125000,4.1410770416259770,55.3969802856445300,55,99,101,78,83,15552,0,0,0,0,2147122761,2147774189,2147573933,2147574555,164,3,13,16602
1343920793,5808,1021.4400024414062000,41.5366210937500000,571.1306762695312000,4.1404170989990230,55.3965415954589840,56,99,100,77,84,15552,0,0,0,0,2147122075,2147778294,2147571565,2147577408,309,3,13,36653
1343924393,5809,1024.7800292968750000,41.4623107910156250,571.6057739257812000,4.1256480216979980,55.4124794006347660,55,100,101,77,83,15551,0,0,0,0,2147121965,2147775213,2147575241,2147573385,42,3,13,14582
1343927993,5809,1032.8900146484375000,41.6417312622070300,570.4451293945312000,4.1617298126220700,55.3769111633300800,55,100,105,79,83,15548,0,0,0,0,2147121636,2147772992,2147573613,2147574025,3553,3,13,3884
1343931593,5811,1026.6300048828125000,41.0647392272949200,570.8054199218750000,4.1505298614501950,55.4641685485839840,55,100,100,77,82,15548,0,0,0,0,2147119085,2147770989,2147575780,2147573970,3587,3,13,1307
1343935193,5808,1026.9499511718750000,40.9069709777832000,571.0770263671875000,4.1420879364013670,55.4957389831543000,56,101,100,77,82,15550,0,0,0,0,2147124224,2147768539,2147577261,2147571712,167,3,13,47181
1343935556,5811,1026.3699951171875000,40.8284912109375000,571.0133056640625000,4.1440677642822270,55.5052299499511700,55,99,100,79,84,15548,0,0,0,0,2147122294,2147775286,2147578669,2147574985,62,3,13,1940
